DECAYED

STARLINK-1084, 44915 (Decayed)

Orbit data source: Space-Track

STARLINK-1084, 44915 was a payload satellite owned by SpaceX/Seattle (US) in LEO that was launched on Tue, 07 Jan 2020 UTC via an FALCON 9 launch vehicle from the Air Force Eastern Test Range (AFETR). Payload-class satellites include a variety of spacecraft equipped with specific instruments for various scientific and technological missions. These include communications satellites like Starlink; space stations such as the ISS; scientific satellites like the Hubble; Earth observation satellites from companies like Planet Labs, Umbra, and HawkEye 360; GPS; miniature CubeSats for education and research; and military/defense satellites.

Not visible in the next 10 days
Identifier
44915, 2020-001B
Orbit
Decayed
Country
Flag of USUS
Related business
Manufacturer
SpaceX/Seattle
Mission
Decayed Commercial Communications
Bus & Motor
STARLINK, Unknown motor
Mass
260 kg wet, ~248 kg dry
Launch date (UTC)
2020-01-07 (6 years ago)
Launch vehicle
FALCON 9
Launch site
Air Force Eastern Test Range (AFETR)
Object type
Payload
Rocket body
Debris
Shape & HBR
Box + 1 Pan, 10.1 m
Radar Cross Section
13.562 m², Large (>1 m²)

Expand to show TLE details & history
Last TLE update: 1 year ago

TLE from 1 year ago
0 STARLINK-1084
1 44915U 20001B   25045.65959484  .20631151  12595-4  33634-3 0  9999
2 44915  53.0234 245.2979 0005896 278.1335 159.3554 16.47840276281959
Epoch: 2025-02-14T15:49Z
TLE epoch observation values (Epoch: 2025-02-14T15:49:48.994Z)
Latitude
51.41654°
Longitude
-67.31022°
Altitude
154.703 km
Speed
7.818 km/s
True Right ascension
21h 00m 14s
True Declination
51° 13' 60"
Sunlit
Object was in daylight at epoch
Visualization orbit readout
Latitude
Unknown
Longitude
Unknown
Altitude
Unknown
Speed
Unknown
Apparent Right ascension
Unknown
Apparent Declination
Unknown
Sunlit
N/A
Visualization observer readout
Local Sidereal Time
04:03:57
Azimuth
Unknown
Elevation
Unknown
Doppler factor
Unknown
Orbital elements
Apogee altitude
149.167 km
Perigee altitude
141.475 km
Semi-major axis
6,523.458 km
Eccentricity
0.00059
Inclination
53.0234°
RAAN
245.2979°
Arg. of periapsis
278.1335°
True anomaly
159.3792°
Mean anomaly
159.3554°
Eccentric anomaly
159.3673°
Mean motion
4.11933 °/min
Orbital period
87.39 mins
BSTAR
0.00033634
Loading maneuver chart data...
Computing Atmospheric mass density...

Documentation

Showing up to 5 results
|